Location: Namasale
(1.5000°N, 32.6167°E)
Time: 17:09:47
(UTC+00:00)

Courier 1B - Pass Details

Date: 22 April 2021
Orbit: 962 x 1209 km, 28.3° (Epoch: 18 May)

Event Time Altitude Azimuth Distance (km) Brightness Sun altitude
Rises 19:33:01 0° 266° (W) 3,792 11.1 -53.7°
Enters shadow 19:34:47 - 259° (W) 3,302 10.6 -54.1°
Reaches altitude 10° 19:36:30 10° 250° (WSW) 2,885 - -54.5°
Maximum altitude 19:41:28 20° 205° (SSW) 2,293 - -55.6°
Drops below altitude 10° 19:46:39 10° 160° (SSE) 3,019 - -56.8°
Sets 19:50:25 0° 144° (SE) 4,023 - -57.6°
